Location: Oberwangen
(47.4286°N, 8.9679°E)
Time: 09:22:04
(UTC+00:00)

Cosmos 1461 - Pass Details

Date: 20 June 2021
Orbit: 513 x 649 km, 65.0° (Epoch: 04 August)

Event Time Altitude Azimuth Distance (km) Brightness Sun altitude
Rises 20:04:50 0° 320° (NW) 2,817 9.1 -6.0°
Reaches altitude 10° 20:07:08 10° 318° (NW) 1,889 7.4 -6.2°
Maximum altitude 20:11:20 65° 237° (WSW) 616 3.1 -6.7°
Drops below altitude 10° 20:15:19 10° 156° (SSE) 1,797 4.8 -7.2°
Enters shadow 20:15:41 - 155° (SSE) 1,944 5.0 -7.2°
